SCP
0 0 0 0 0 0 0 0 0 0 0 0 0 0 0 0 0 0 0 0 0 -0 0 0 0 0 0 0 0 0 0 0 0 0 0 0 0 0 0 0 0 0 -0 0 -0
0 0 0 0 0 0 0 0 0 0 0 0 0 0 0 0 0 -0 0 0 0 0 0 0 0 0 0 0 0 0 0 0 0 0 0 0 0 0 0 0 0 0 0 0 0
0 0 0 0 0 0 0 0 0 0 0 0 0 0 0 0 0 -0 0 0 0 0 0 0 0 0 0 0 0 0 0 0 0 0 0 0 0 0 0 0 0 0 0 0 0
0 0 0 0 0 0 0 0 0 0 0 0 0 0 0 0 0 0 0 1 0 0 0 0 0 0 0 0 0 0 0 0 0 0 0 0 0 0 0 0 0 -0 0 0 0
0 0 0 0 0 0 0 0 0 0 0 0 0 0 0 0 0 -0 0 0 0 0 0 0 0 0 0 0 0 0 0 0 0 0 0 0 0 0 0 0 0 0 0 0 0
0 0 0 0 0 0 0 0 0 0 0 0 0 0 0 0 0 0 -0 -0 0 0 0 0 0 0 0 0 0 0 -0 0 0 0 0 0 0 0 0 0 0 0 0 0 0
0 0 0 0 0 0 0 0 0 0 0 0 0 0 0 0 0 0 0 -0 -0 0 0 0 0 0 0 0 0 0 0 0 0 0 0 0 0 0 0 0 0 0 0 0 0
0 0 0 0 0 0 0 0 0 0 0 0 0 0 0 0 0 0 0 0 0 0 0 0 0 0 0 0 0 0 0 0 0 0 0 0 0 0 0 0 0 0 0 0 0
0 0 0 0 0 0 0 0 0 0 0 0 0 0 0 0 0 0 0 0 0 0 0 0 0 0 0 0 0 0 0 0 0 0 0 0 0 0 0 0 0 0 0 0 0
0 0 0 0 0 0 0 0 0 0 0 0 0 0 0 0 0 0 0 0 0 0 0 0 0 0 0 0 0 0 0 0 0 0 0 0 0 0 0 0 0 0 0 0 0
0 0 0 0 0 0 0 0 0 0 0 0 0 0 0 0 0 0 0 0 0 0 0 0 0 0 0 0 0 0 0 0 0 0 0 0 0 0 0 0 0 0 0 0 0
0 0 0 0 0 0 0 0 0 0 0 0 0 0 0 0 0 0 0 0 0 0 0 0 0 0 0 0 0 0 0 0 0 0 0 0 0 0 0 0 0 0 0 0 0
0 0 0 0 0 0 0 0 0 0 0 -0 0 0 0 0 0 0 0 0 0 0 0 0 0 0 0 0 0 0 0 0 0 0 0 0 0 0 0 0 0 0 0 0 0
0 0 0 0 0 0 0 0 0 0 0 -0 0 0 0 0 0 0 0 0 0 0 0 0 0 0 0 0 0 0 0 0 0 0 0 0 0 0 0 0 0 0 0 0 0
0 0 0 0 0 0 0 0 0 0 0 0 0 0 -0 0 0 0 0 0 0 0 0 0 0 0 0 0 0 0 0 0 0 0 0 0 0 -0 0 0 0 0 0 0 0
0 0 0 0 0 0 0 0 0 0 0 0 0 0 0 0 0 0 0 0 0 0 0 0 0 0 0 0 0 0 0 0 0 0 0 0 0 0 0 0 0 0 0 0 0
0 0 0 0 0 0 0 0 0 0 0 0 0 0 0 0 0 0 0 0 0 0 0 0 0 0 0 0 0 0 0 0 0 0 0 0 0 0 0 0 0 0 0 0 0
0 0 0 0 0 0 0 0 0 0 0 0 -0 0 0 0 0 0 0 0 0 0 0 0 0 0 0 0 0 0 0 0 0 0 0 0 0 0 0 0 0 0 0 0 0
0 0 0 0 0 0 0 0 0 0 0 0 0 -0 -0 0 0 0 0 0 0 0 0 0 0 0 0 0 0 0 0 0 0 0 0 0 0 0 0 0 0 0 0 0 0
0 0 0 0 0 0 0 0 0 0 0 0 -0 0 -0 -0 -0 0 0 0 0 0 0 0 0 0 0 0 0 0 0 0 0 0 0 0 0 0 0 0 0 0 0 0 0
0 0 0 0 0 0 0 0 0 0 0 0 -0 -0 -0 -0 -0 -0 0 0 0 0 0 0 0 -0 0 0 0 0 0 0 0 0 0 0 0 0 0 0 0 0 0 0 0
0 0 0 0 0 0 0 0 0 0 0 0 0 -0 -0 -0 -0 -0 -0 0 0 0 0 0 0 -0 0 0 0 0 0 0 0 0 0 0 0 0 0 0 0 0 0 0 0
0 0 0 0 0 0 0 0 0 0 0 0 0 -0 -0 -0 -0 -0 -0 -0 -0 -0 0 0 0 0 -0 0 0 0 0 0 0 0 0 0 0 0 0 0 0 0 0 0 0
0 0 0 0 0 0 0 0 0 0 0 0 0 0 -0 -0 -0 -0 -0 -0 -0 -0 -0 0 0 0 0 0 0 0 0 0 0 0 0 0 0 0 0 0 0 0 0 0 0
0 0 0 0 0 0 0 0 -0 0 0 0 0 -0 -0 -0 -0 -0 -0 -0 -0 -0 -0 -0 0 0 0 0 0 0 0 0 0 0 0 0 0 0 0 0 0 0 0 0 0
0 0 0 0 0 0 0 0 0 0 0 0 0 0 0 -0 -0 -0 -0 -0 -0 -0 -0 -0 0 0 0 0 0 0 0 0 0 0 0 0 0 0 0 0 0 0 0 0 0
0 0 0 0 0 0 0 0 0 0 0 0 0 0 0 0 -0 -0 -0 0 -0 -0 -0 -0 0 0 0 0 0 0 0 0 0 0 0 0 0 0 0 0 0 0 0 0 0
Wind_Speed_500mb
38 36 39 41 40 39 40 40 48 46 46 46 49 51 51 51 56 57 66 54 38 25 22 20 19 27 19 14 17 11 5 7 8 11 8 6 8 9 14 28 13 26 15 16 50
40 38 40 40 43 42 41 41 42 44 50 51 46 50 44 49 55 73 64 51 55 45 36 30 25 29 13 14 15 10 8 17 12 7 3 8 7 23 15 17 6 27 20 24 59
40 41 38 40 43 45 45 42 44 43 42 55 53 48 50 38 48 77 30 30 42 51 55 41 32 30 16 15 18 13 12 10 10 13 8 9 3 7 20 8 23 45 37 49 65
42 40 40 42 43 43 45 44 44 46 43 43 53 57 47 36 19 12 17 20 14 26 46 44 34 18 11 13 17 7 18 13 13 12 17 6 9 5 18 11 26 35 40 61 72
40 43 42 45 43 43 46 48 47 48 43 42 43 43 48 38 51 28 22 3 11 13 31 41 37 26 12 10 15 10 9 15 35 33 34 33 19 12 16 16 18 27 41 59 72
40 41 43 45 45 46 47 48 49 50 41 43 32 40 43 43 73 77 77 66 61 43 32 44 26 42 18 15 16 9 23 34 37 36 23 9 16 10 20 23 19 26 43 56 67
43 39 43 43 49 49 50 49 50 53 50 40 34 35 47 84 39 41 60 73 65 44 37 41 50 25 32 7 29 36 11 14 12 15 15 29 17 17 37 19 25 28 42 55 61
38 42 48 46 49 52 52 52 54 53 50 43 32 33 48 72 86 69 46 48 34 26 36 48 34 49 11 9 4 7 9 20 8 16 15 30 29 19 49 40 46 42 42 53 61
41 45 45 50 52 55 56 51 54 54 45 44 34 32 38 22 83 95 90 79 54 50 44 33 37 29 21 9 7 5 8 9 11 21 11 17 14 15 45 40 51 55 57 58 59
44 44 46 52 56 59 53 49 45 36 26 29 29 15 50 45 56 59 75 86 67 54 36 34 29 10 9 17 35 14 11 11 15 14 13 12 22 16 18 42 59 64 63 65 64
46 50 49 52 53 55 52 48 28 12 18 18 24 43 46 34 32 53 58 71 60 30 25 20 16 33 46 36 21 16 13 22 8 11 11 15 30 34 41 27 30 43 43 44 52
44 49 45 48 47 51 40 38 26 35 32 48 65 85 89 73 29 26 55 39 33 42 36 15 44 45 26 26 23 26 18 19 9 11 9 16 20 27 14 22 52 60 61 62 60
44 43 40 46 43 42 24 28 39 50 22 41 66 66 70 56 54 57 58 64 22 42 36 43 32 29 34 26 31 37 37 24 14 2 7 3 14 15 15 30 45 60 78 74 70
39 38 43 41 35 27 38 32 40 43 12 16 13 19 38 49 25 82 42 48 21 46 49 38 39 37 29 41 35 42 34 21 16 3 12 11 11 13 11 18 13 47 62 80 77
37 41 38 35 36 44 49 37 28 25 13 14 10 10 7 49 19 48 80 66 36 24 37 35 47 42 44 55 39 32 18 21 15 13 2 10 6 14 10 16 22 36 52 79 83
39 41 41 38 44 44 25 42 24 5 17 12 8 20 13 34 46 13 46 49 40 24 37 46 16 40 37 31 39 17 12 7 7 8 17 28 19 12 16 19 25 19 60 75 77
40 42 43 40 44 44 38 23 7 11 11 10 14 22 22 14 26 37 32 51 25 21 16 17 43 25 16 17 15 23 19 7 6 8 26 15 16 34 13 20 34 33 45 60 60
40 43 46 50 47 35 23 3 13 13 26 38 31 35 20 13 12 37 40 31 35 18 16 22 23 35 26 30 31 50 37 13 15 10 20 13 15 13 26 43 43 46 52 51 32
36 39 47 39 15 26 28 9 15 16 14 13 25 18 5 10 18 31 42 51 23 23 15 26 18 18 25 17 34 21 33 36 10 4 3 10 13 15 16 19 17 30 36 37 39
30 32 40 5 8 39 6 14 12 20 27 20 7 12 10 27 15 16 11 21 43 31 32 17 10 23 46 16 25 26 41 21 13 12 13 8 8 15 13 27 16 17 26 47 43
21 9 9 6 16 29 7 13 14 38 43 13 17 17 32 29 7 16 10 37 21 28 32 14 26 12 32 44 36 21 26 12 22 13 16 5 13 15 18 19 21 25 47 50 47
12 1 18 18 3 9 6 9 17 29 29 14 8 15 17 17 10 12 20 25 24 18 23 44 9 20 35 44 60 52 53 47 25 26 28 7 20 8 19 14 14 19 50 54 45
11 12 20 27 8 9 10 11 14 11 12 8 11 16 9 10 12 10 5 8 8 11 14 20 34 23 12 21 41 56 42 40 41 17 19 31 23 10 12 9 23 22 43 49 47
13 4 13 29 18 8 7 11 19 16 19 14 11 11 15 13 19 12 17 14 13 3 11 20 17 48 39 20 43 65 49 42 50 36 43 37 42 11 13 17 15 28 48 57 54
25 11 11 6 8 8 6 4 12 10 14 8 6 8 3 7 15 11 21 26 15 13 6 10 18 23 43 15 38 37 60 60 50 53 43 59 51 33 19 23 25 48 41 58 54
19 10 13 10 14 9 9 9 18 24 16 12 9 20 11 9 17 30 27 14 10 9 10 4 11 41 49 46 23 47 48 52 45 56 42 47 44 21 21 12 8 33 53 57 58
37 37 13 15 9 7 9 12 12 12 13 28 10 14 20 22 29 34 48 44 30 20 14 5 6 14 20 47 39 23 44 50 46 42 62 54 56 17 19 17 22 37 44 59 61
Wind_Direction_500mb
330 325 323 325 324 321 320 316 286 273 272 287 274 263 269 292 288 283 273 268 270 273 239 229 220 201 215 215 196 186 104 203 233 182 263 175 142 191 171 144 167 189 179 196 178
331 331 326 321 321 321 317 318 312 291 268 271 288 270 266 276 290 282 267 275 267 247 241 235 229 208 216 210 200 163 164 210 211 176 258 283 202 170 146 152 189 192 187 175 180
330 331 321 324 320 324 318 311 305 304 299 267 274 283 260 270 295 278 286 260 252 238 233 232 232 219 218 214 207 194 203 219 238 197 352 319 282 250 142 191 184 188 185 178 182
334 327 321 315 316 321 323 318 306 304 305 299 264 275 277 268 244 232 184 114 100 213 213 207 213 197 197 213 208 206 225 216 269 291 330 313 293 229 186 216 203 199 196 182 187
331 329 319 320 316 315 320 320 316 311 302 295 287 275 283 259 234 219 200 217 347 327 216 211 210 197 194 209 213 234 239 219 254 284 286 287 260 235 217 178 162 191 196 193 195
324 325 327 317 316 315 313 314 315 309 299 285 291 276 272 255 236 232 245 260 273 279 250 230 224 215 219 225 177 249 218 249 262 269 271 251 266 207 242 206 208 201 200 204 206
319 318 319 317 316 315 313 312 311 311 301 295 285 285 263 243 218 220 240 255 267 249 257 238 231 209 220 287 243 242 256 278 245 240 223 224 271 224 232 210 206 211 215 212 219
317 318 317 321 320 318 308 308 309 306 298 284 274 272 262 248 242 232 215 230 215 248 252 238 244 238 226 217 310 173 158 244 224 183 231 173 252 240 237 240 243 236 226 224 228
315 317 318 321 320 318 317 307 306 304 287 268 267 248 265 260 237 232 231 238 241 252 263 255 234 218 227 192 305 255 206 198 271 198 170 182 249 232 235 232 242 245 244 238 238
308 316 311 317 323 327 323 317 319 304 296 267 232 252 252 244 236 231 232 239 244 258 275 238 204 176 169 192 217 198 182 229 206 214 200 196 257 256 240 228 238 246 250 252 243
310 306 310 320 322 329 326 333 351 325 309 275 251 235 265 9 224 232 227 227 237 239 231 217 189 208 211 215 231 192 195 216 196 222 165 223 238 250 237 225 233 237 242 239 236
302 302 304 314 325 328 321 342 339 313 293 279 272 267 262 261 289 274 209 187 182 213 217 224 220 213 208 196 208 226 225 232 270 198 168 257 249 251 232 223 227 233 244 246 244
301 301 303 307 319 320 328 318 334 331 283 285 257 253 251 246 242 255 203 200 194 210 202 209 227 196 190 196 201 221 223 217 224 107 210 330 281 265 255 221 241 247 250 255 252
301 300 302 308 315 304 320 322 318 332 288 271 235 262 223 215 239 236 234 192 208 202 202 221 222 204 192 206 195 223 214 221 226 185 250 160 274 264 252 252 231 248 247 250 253
298 298 297 302 298 304 316 322 335 326 287 263 235 290 304 183 179 227 222 202 205 186 183 212 204 203 199 205 191 232 173 199 202 227 150 230 248 264 221 237 251 247 251 257 256
291 291 300 294 293 300 314 320 324 228 248 292 323 22 0 216 226 216 197 212 218 207 196 218 186 200 209 211 201 139 108 109 84 129 243 240 210 216 210 208 243 247 250 255 259
285 287 291 287 281 300 300 332 29 230 314 261 354 337 340 296 240 236 213 198 191 180 190 233 228 210 168 176 172 182 147 198 225 199 238 202 215 241 250 228 231 241 249 261 267
284 288 289 291 303 277 259 135 226 257 241 287 327 315 306 307 280 223 235 207 191 174 165 187 217 205 189 201 189 194 191 164 198 202 236 165 231 245 206 222 231 243 253 272 244
280 293 295 318 277 191 158 202 214 230 263 320 335 307 341 81 352 359 232 242 180 208 162 187 228 178 208 196 170 189 201 191 123 348 120 215 284 297 251 252 242 241 237 232 202
279 298 301 246 274 161 167 241 234 233 280 311 248 277 280 325 337 30 315 318 246 206 203 195 241 210 208 194 214 172 192 186 208 188 230 260 246 225 234 221 218 226 216 217 208
272 282 268 164 164 174 214 226 262 249 263 270 261 288 294 300 282 308 268 300 8 266 232 220 212 215 200 205 195 187 194 183 193 189 213 253 251 212 208 213 202 217 220 212 205
232 257 193 177 124 237 213 215 236 262 276 258 271 248 260 266 257 241 209 207 338 356 308 238 263 236 219 210 199 200 210 196 200 204 224 164 238 204 220 232 199 219 213 211 204
202 223 222 237 230 222 273 260 234 255 244 261 262 224 215 268 302 236 298 155 74 45 10 348 228 230 224 224 208 214 206 202 210 225 208 217 241 187 173 209 228 222 214 204 201
179 225 220 207 236 195 251 260 248 283 252 248 266 281 271 262 253 260 251 252 281 289 305 325 247 219 225 212 194 206 211 207 204 211 221 218 233 212 194 219 235 229 223 201 200
190 218 205 221 237 209 165 245 276 276 237 244 269 218 356 287 308 290 301 287 267 212 188 213 279 256 229 206 201 220 210 208 216 216 211 224 228 214 212 212 219 227 210 193 200
184 182 202 245 249 229 242 214 249 269 264 265 259 302 305 281 277 296 301 322 307 167 182 198 305 317 221 227 233 200 220 215 218 223 224 237 245 183 221 192 157 191 186 192 199
213 226 206 199 181 174 213 214 236 264 267 252 275 321 296 281 282 286 280 267 250 249 270 160 342 355 240 206 220 222 216 212 220 230 218 221 228 169 195 202 207 201 195 203 206
Wind_Speed_850mb
38 36 39 41 40 39 40 40 48 46 46 46 49 51 51 51 56 57 66 54 38 25 22 20 19 27 19 14 17 11 5 7 8 11 8 6 8 9 14 28 13 26 15 16 50
40 38 40 40 43 42 41 41 42 44 50 51 46 50 44 49 55 73 64 51 55 45 36 30 25 29 13 14 15 10 8 17 12 7 3 8 7 23 15 17 6 27 20 24 59
40 41 38 40 43 45 45 42 44 43 42 55 53 48 50 38 48 77 30 30 42 51 55 41 32 30 16 15 18 13 12 10 10 13 8 9 3 7 20 8 23 45 37 49 65
42 40 40 42 43 43 45 44 44 46 43 43 53 57 47 36 19 12 17 20 14 26 46 44 34 18 11 13 17 7 18 13 13 12 17 6 9 5 18 11 26 35 40 61 72
40 43 42 45 43 43 46 48 47 48 43 42 43 43 48 38 51 28 22 3 11 13 31 41 37 26 12 10 15 10 9 15 35 33 34 33 19 12 16 16 18 27 41 59 72
40 41 43 45 45 46 47 48 49 50 41 43 32 40 43 43 73 77 77 66 61 43 32 44 26 42 18 15 16 9 23 34 37 36 23 9 16 10 20 23 19 26 43 56 67
43 39 43 43 49 49 50 49 50 53 50 40 34 35 47 84 39 41 60 73 65 44 37 41 50 25 32 7 29 36 11 14 12 15 15 29 17 17 37 19 25 28 42 55 61
38 42 48 46 49 52 52 52 54 53 50 43 32 33 48 72 86 69 46 48 34 26 36 48 34 49 11 9 4 7 9 20 8 16 15 30 29 19 49 40 46 42 42 53 61
41 45 45 50 52 55 56 51 54 54 45 44 34 32 38 22 83 95 90 79 54 50 44 33 37 29 21 9 7 5 8 9 11 21 11 17 14 15 45 40 51 55 57 58 59
44 44 46 52 56 59 53 49 45 36 26 29 29 15 50 45 56 59 75 86 67 54 36 34 29 10 9 17 35 14 11 11 15 14 13 12 22 16 18 42 59 64 63 65 64
46 50 49 52 53 55 52 48 28 12 18 18 24 43 46 34 32 53 58 71 60 30 25 20 16 33 46 36 21 16 13 22 8 11 11 15 30 34 41 27 30 43 43 44 52
44 49 45 48 47 51 40 38 26 35 32 48 65 85 89 73 29 26 55 39 33 42 36 15 44 45 26 26 23 26 18 19 9 11 9 16 20 27 14 22 52 60 61 62 60
44 43 40 46 43 42 24 28 39 50 22 41 66 66 70 56 54 57 58 64 22 42 36 43 32 29 34 26 31 37 37 24 14 2 7 3 14 15 15 30 45 60 78 74 70
39 38 43 41 35 27 38 32 40 43 12 16 13 19 38 49 25 82 42 48 21 46 49 38 39 37 29 41 35 42 34 21 16 3 12 11 11 13 11 18 13 47 62 80 77
37 41 38 35 36 44 49 37 28 25 13 14 10 10 7 49 19 48 80 66 36 24 37 35 47 42 44 55 39 32 18 21 15 13 2 10 6 14 10 16 22 36 52 79 83
39 41 41 38 44 44 25 42 24 5 17 12 8 20 13 34 46 13 46 49 40 24 37 46 16 40 37 31 39 17 12 7 7 8 17 28 19 12 16 19 25 19 60 75 77
40 42 43 40 44 44 38 23 7 11 11 10 14 22 22 14 26 37 32 51 25 21 16 17 43 25 16 17 15 23 19 7 6 8 26 15 16 34 13 20 34 33 45 60 60
40 43 46 50 47 35 23 3 13 13 26 38 31 35 20 13 12 37 40 31 35 18 16 22 23 35 26 30 31 50 37 13 15 10 20 13 15 13 26 43 43 46 52 51 32
36 39 47 39 15 26 28 9 15 16 14 13 25 18 5 10 18 31 42 51 23 23 15 26 18 18 25 17 34 21 33 36 10 4 3 10 13 15 16 19 17 30 36 37 39
30 32 40 5 8 39 6 14 12 20 27 20 7 12 10 27 15 16 11 21 43 31 32 17 10 23 46 16 25 26 41 21 13 12 13 8 8 15 13 27 16 17 26 47 43
21 9 9 6 16 29 7 13 14 38 43 13 17 17 32 29 7 16 10 37 21 28 32 14 26 12 32 44 36 21 26 12 22 13 16 5 13 15 18 19 21 25 47 50 47
12 1 18 18 3 9 6 9 17 29 29 14 8 15 17 17 10 12 20 25 24 18 23 44 9 20 35 44 60 52 53 47 25 26 28 7 20 8 19 14 14 19 50 54 45
11 12 20 27 8 9 10 11 14 11 12 8 11 16 9 10 12 10 5 8 8 11 14 20 34 23 12 21 41 56 42 40 41 17 19 31 23 10 12 9 23 22 43 49 47
13 4 13 29 18 8 7 11 19 16 19 14 11 11 15 13 19 12 17 14 13 3 11 20 17 48 39 20 43 65 49 42 50 36 43 37 42 11 13 17 15 28 48 57 54
25 11 11 6 8 8 6 4 12 10 14 8 6 8 3 7 15 11 21 26 15 13 6 10 18 23 43 15 38 37 60 60 50 53 43 59 51 33 19 23 25 48 41 58 54
19 10 13 10 14 9 9 9 18 24 16 12 9 20 11 9 17 30 27 14 10 9 10 4 11 41 49 46 23 47 48 52 45 56 42 47 44 21 21 12 8 33 53 57 58
37 37 13 15 9 7 9 12 12 12 13 28 10 14 20 22 29 34 48 44 30 20 14 5 6 14 20 47 39 23 44 50 46 42 62 54 56 17 19 17 22 37 44 59 61
Wind_Direction_850mb
330 325 323 325 324 321 320 316 286 273 272 287 274 263 269 292 288 283 273 268 270 273 239 229 220 201 215 215 196 186 104 203 233 182 263 175 142 191 171 144 167 189 179 196 178
331 331 326 321 321 321 317 318 312 291 268 271 288 270 266 276 290 282 267 275 267 247 241 235 229 208 216 210 200 163 164 210 211 176 258 283 202 170 146 152 189 192 187 175 180
330 331 321 324 320 324 318 311 305 304 299 267 274 283 260 270 295 278 286 260 252 238 233 232 232 219 218 214 207 194 203 219 238 197 352 319 282 250 142 191 184 188 185 178 182
334 327 321 315 316 321 323 318 306 304 305 299 264 275 277 268 244 232 184 114 100 213 213 207 213 197 197 213 208 206 225 216 269 291 330 313 293 229 186 216 203 199 196 182 187
331 329 319 320 316 315 320 320 316 311 302 295 287 275 283 259 234 219 200 217 347 327 216 211 210 197 194 209 213 234 239 219 254 284 286 287 260 235 217 178 162 191 196 193 195
324 325 327 317 316 315 313 314 315 309 299 285 291 276 272 255 236 232 245 260 273 279 250 230 224 215 219 225 177 249 218 249 262 269 271 251 266 207 242 206 208 201 200 204 206
319 318 319 317 316 315 313 312 311 311 301 295 285 285 263 243 218 220 240 255 267 249 257 238 231 209 220 287 243 242 256 278 245 240 223 224 271 224 232 210 206 211 215 212 219
317 318 317 321 320 318 308 308 309 306 298 284 274 272 262 248 242 232 215 230 215 248 252 238 244 238 226 217 310 173 158 244 224 183 231 173 252 240 237 240 243 236 226 224 228
315 317 318 321 320 318 317 307 306 304 287 268 267 248 265 260 237 232 231 238 241 252 263 255 234 218 227 192 305 255 206 198 271 198 170 182 249 232 235 232 242 245 244 238 238
308 316 311 317 323 327 323 317 319 304 296 267 232 252 252 244 236 231 232 239 244 258 275 238 204 176 169 192 217 198 182 229 206 214 200 196 257 256 240 228 238 246 250 252 243
310 306 310 320 322 329 326 333 351 325 309 275 251 235 265 9 224 232 227 227 237 239 231 217 189 208 211 215 231 192 195 216 196 222 165 223 238 250 237 225 233 237 242 239 236
302 302 304 314 325 328 321 342 339 313 293 279 272 267 262 261 289 274 209 187 182 213 217 224 220 213 208 196 208 226 225 232 270 198 168 257 249 251 232 223 227 233 244 246 244
301 301 303 307 319 320 328 318 334 331 283 285 257 253 251 246 242 255 203 200 194 210 202 209 227 196 190 196 201 221 223 217 224 107 210 330 281 265 255 221 241 247 250 255 252
301 300 302 308 315 304 320 322 318 332 288 271 235 262 223 215 239 236 234 192 208 202 202 221 222 204 192 206 195 223 214 221 226 185 250 160 274 264 252 252 231 248 247 250 253
298 298 297 302 298 304 316 322 335 326 287 263 235 290 304 183 179 227 222 202 205 186 183 212 204 203 199 205 191 232 173 199 202 227 150 230 248 264 221 237 251 247 251 257 256
291 291 300 294 293 300 314 320 324 228 248 292 323 22 0 216 226 216 197 212 218 207 196 218 186 200 209 211 201 139 108 109 84 129 243 240 210 216 210 208 243 247 250 255 259
285 287 291 287 281 300 300 332 29 230 314 261 354 337 340 296 240 236 213 198 191 180 190 233 228 210 168 176 172 182 147 198 225 199 238 202 215 241 250 228 231 241 249 261 267
284 288 289 291 303 277 259 135 226 257 241 287 327 315 306 307 280 223 235 207 191 174 165 187 217 205 189 201 189 194 191 164 198 202 236 165 231 245 206 222 231 243 253 272 244
280 293 295 318 277 191 158 202 214 230 263 320 335 307 341 81 352 359 232 242 180 208 162 187 228 178 208 196 170 189 201 191 123 348 120 215 284 297 251 252 242 241 237 232 202
279 298 301 246 274 161 167 241 234 233 280 311 248 277 280 325 337 30 315 318 246 206 203 195 241 210 208 194 214 172 192 186 208 188 230 260 246 225 234 221 218 226 216 217 208
272 282 268 164 164 174 214 226 262 249 263 270 261 288 294 300 282 308 268 300 8 266 232 220 212 215 200 205 195 187 194 183 193 189 213 253 251 212 208 213 202 217 220 212 205
232 257 193 177 124 237 213 215 236 262 276 258 271 248 260 266 257 241 209 207 338 356 308 238 263 236 219 210 199 200 210 196 200 204 224 164 238 204 220 232 199 219 213 211 204
202 223 222 237 230 222 273 260 234 255 244 261 262 224 215 268 302 236 298 155 74 45 10 348 228 230 224 224 208 214 206 202 210 225 208 217 241 187 173 209 228 222 214 204 201
179 225 220 207 236 195 251 260 248 283 252 248 266 281 271 262 253 260 251 252 281 289 305 325 247 219 225 212 194 206 211 207 204 211 221 218 233 212 194 219 235 229 223 201 200
190 218 205 221 237 209 165 245 276 276 237 244 269 218 356 287 308 290 301 287 267 212 188 213 279 256 229 206 201 220 210 208 216 216 211 224 228 214 212 212 219 227 210 193 200
184 182 202 245 249 229 242 214 249 269 264 265 259 302 305 281 277 296 301 322 307 167 182 198 305 317 221 227 233 200 220 215 218 223 224 237 245 183 221 192 157 191 186 192 199
213 226 206 199 181 174 213 214 236 264 267 252 275 321 296 281 282 286 280 267 250 249 270 160 342 355 240 206 220 222 216 212 220 230 218 221 228 169 195 202 207 201 195 203 206